www.pogodaiklimat.ru

Погода и климат >> Архив погоды >> Россия >> Якутия >> Усть-Миль


ПОГОДА в Усть-Миле

  • Прогноз погоды в Усть-Миле
  • Монитор погоды в Усть-Миле
  • Климат города

АРХИВ ПОГОДЫ в Усть-Миле

Время (UTC), дата Ветер
(напр.,м/с)
 
Видим.   Явления Облачность Т
(С)
Тd
(С)
f
(%)
Тe
(С)
Тes
(С)
Комфортность P
(гПа)
Po
(гПа)
Тmin
(С)
Tmax
(С)
R
(мм)
R24
(мм)
S
(см)
06 17.08 В 1 10 км дым 10/3 600 м
[Cb cap Cs]
+23.4 +18.0 72 +29 +34 душно 1010.6 990.0
09 17.08 штиль 0 50 км дым 10/0
[Ac trans Cs]
+24.6 +18.6 69 +29 +30 душно 1008.8 988.4 +24.8
12 17.08 СВ 2 10 км дым 10/6 600 м
[Cb cap Ac trans Cs]
+21.6 +17.6 78 +26 +26 душно 1008.4 987.7
15 17.08 В 1 50 км 10/8 600 м
[Cb cap As op]
+19.8 +17.2 85 +23 +23 комфорт 1006.8 986.1
18 17.08 СВ 1 10 км слабый ливневой дождь 10/8 600 м
[Cb cap As op]
+18.4 +16.1 86 +20 +20 1006.8 986.1
21 17.08 штиль 0 20 км слабый ливневой дождь {гроза} 10/8 600 м
[Cb cap As op]
+16.8 +15.8 94 +17 +17 1007.7 986.8 +16.6 4
00 18.08 С 1 50 км {гроза, ливн. осадки} 10/3 600 м
[Cb cap As op]
+14.3 +13.2 93 +15 +16 1009.9 988.6
03 18.08 С 1 20 км слабая морось 10/8 600 м
[St As op]
+14.5 +13.4 93 +15 +15 1010.3 989.2
06 18.08 СЗ 1 20 км слабая морось 10/10 600 м
[St]
+14.8 +13.6 93 +15 +15 1010.4 989.3
09 18.08 штиль 0 50 км {морось} 10/4 600 м
[St As op]
+15.6 +14.0 90 +15 +15 1010.1 989.0 +14.8 4
12 18.08 штиль 0 50 км {морось} 10/8 600 м
[St As op]
+15.0 +13.8 93 +15 +15 1009.8 988.7
15 18.08 штиль 0 50 км 10/6 600 м
[St As op]
+14.5 +13.4 93 +14 +14 1008.4 987.4
18 18.08 СВ 1 50 км 10/3 600 м
[St As op]
+14.0 +12.9 93 +14 +14 1007.9 986.7
21 18.08 СВ 1 20 км слабый дождь 10/4 600 м
[St As op]
+13.7 +13.7 100 +14 +14 1007.9 986.7 +13.6 0.3
00 19.08 СЗ 1 <100 м слабый дождь 10/6
[Frnb As op]
+14.7 +13.7 94 +15 +16 1009.1 988.0
03 19.08 СЗ 1 50 км {дождь} 10/8 600 м
[Frnb As op]
+15.4 +14.5 94 +16 +16 1009.1 988.0
06 19.08 С 3 50 км в посл. час ливневой снег {дождь} 10/6 600 м
[Cb cap As op]
+15.8 +14.6 93 +15 +16 1009.1 988.0
09 19.08 штиль 0 50 км {ливн. осадки, дождь} 10/6 600 м
[Cb cap As op]
+15.4 +15.1 98 +15 +15 1009.9 988.8 +16.0 6
12 19.08 СЗ 2 10 км слабый ливневой дождь 8/8 600 м
[Cb cap]
+14.6 +14.4 99 +14 +14 1011.0 989.9
15 19.08 штиль 0 50 км {ливн. осадки} 8/8 600 м
[Cb cap]
+13.0 +12.8 99 +12 +12 1011.3 990.0
18 19.08 50 км {ливн. осадки} н/о +8.7 +8.2 97 +8 +8 1011.5 989.8
21 19.08 штиль 0 50 км {ливн. осадки} 10/6 600 м
[Cb cap As op]
+10.6 +10.6 100 +10 +10 1011.9 990.3 +8.7 5
00 20.08 З 1 50 км {ливн. осадки} 10/6 600 м
[Cb cap As op]
+11.9 +11.9 100 +12 +12 1012.2 990.8
03 20.08 СЗ 2 50 км 9/8 600 м
[Cb cap Ac trans]
+14.8 +12.8 88 +14 +16 1011.6 990.5
06 20.08 З 2 50 км 6/6 600 м
[Cb cap]
+19.6 +13.3 67 +22 +24 комфорт 1010.6 989.8
09 20.08 С 1 50 км 5/4 600 м
[Cb cap Ac trans]
+18.8 +14.9 78 +21 +21 комфорт 1010.4 989.6 +21.0
12 20.08 З 1 50 км 4/0
[Ac trans]
+11.7 +11.5 99 +11 +11 1011.7 990.3
15 20.08 З 1 50 км ясно +10.5 +10.5 100 +10 +10 1012.0 990.4
18 20.08 З 1 50 км ясно +6.8 +6.8 100 +6 +6 1012.3 990.4
21 20.08 штиль 0 200 м туман ?/? +4.0 +4.0 100 +3 +3 1013.1 991.1 +3.9
00 21.08 штиль 0 50 км {туман} ясно +12.2 +10.9 92 +12 +19 1012.0 990.6
03 21.08 ЮВ 1 50 км 4/0
[Ci fib]
+18.0 +11.6 66 +19 +30 1009.9 988.9
06 21.08 В 1 50 км 10/0
[Ci fib]
+20.3 +11.0 55 +23 +29 комфорт 1008.0 987.3
09 21.08 ЮВ 1 50 км 10/0
[Ci fib]
+19.7 +11.8 60 +22 +23 комфорт 1007.0 986.3 +20.7
12 21.08 В 2 50 км 10/0
[Ac trans Ci fib]
+13.0 +9.7 80 +12 +12 1007.2 986.0
15 21.08 В 1 50 км ясно +11.3 +9.7 90 +11 +11 1006.6 985.3
18 21.08 ЮВ 3 50 км 6/0
[Ci fib]
+12.8 +11.5 92 +11 +11 1005.2 983.9
21 21.08 ЮВ 3 50 км 10/0
[Ac trans Ci fib]
+14.3 +9.7 74 +13 +14 1003.7 982.5 +11.2
00 22.08 Ю 3 50 км 10/0
[Ac trans Ci fib]
+18.0 +8.8 55 +18 +21 1002.6 981.8
03 22.08 В 3 50 км 10/4 600 м
[Sc Ac trans Ci fib]
+19.8 +8.8 49 +21 +24 комфорт 1000.9 980.3
06 22.08 Ю 2 50 км 9/9 600 м
[Sc]
+20.0 +9.3 50 +22 +22 комфорт 1000.6 980.0
09 22.08 Ю 3 50 км 9/9 600 м
[Sc]
+19.0 +8.9 52 +20 +20 1001.3 980.7 +20.2
12 22.08 Ю 2 50 км 8/8 600 м
[Sc]
+17.6 +9.6 59 +18 +18 1002.4 981.6
15 22.08 Ю 3 50 км 3/3 600 м
[Sc]
+15.8 +9.0 64 +15 +15 1002.6 981.7
18 22.08 ЮВ 2 50 км 10/0
[Ac trans Ci fib]
+15.4 +8.8 65 +15 +15 1002.7 981.8
21 22.08 Ю 2 50 км 10/8 600 м
[Sc Ci fib]
+15.0 +8.5 65 +15 +15 1002.8 981.9 +14.8
00 23.08 ЮВ 2 50 км 8/6 600 м
[Sc Ci fib]
+16.8 +10.4 66 +17 +19 1003.4 982.5
03 23.08 ЮВ 2 50 км 6/0
[Ac trans Ci fib]
+20.2 +12.0 59 +23 +30 комфорт 1003.2 982.5
06 23.08 ЮВ 2 50 км 6/4 600 м
[Sc Ci fib]
+21.9 +15.4 67 +26 +29 душно 1002.1 981.6
09 23.08 Ю 2 50 км 4/1 600 м
[Cb cap Ac trans]
+21.4 +15.2 68 +25 +25 комфорт 1002.6 982.1 +22.9
12 23.08 Ю 1 50 км 8/4 600 м
[Sc Ci fib]
+16.7 +14.4 86 +18 +18 1004.0 983.1
15 23.08 В 1 50 км 3/3 600 м
[Sc]
+13.2 +8.4 73 +13 +13 1004.4 983.2
18 23.08 В 1 50 км 8/4 600 м
[Sc Ac trans]
+11.8 +6.8 71 +12 +12 1004.9 983.6
21 23.08 штиль 0 50 км 9/0
[Ac trans]
+13.6 +11.0 84 +13 +13 1004.5 983.3 +11.7
00 24.08 ЮЗ 1 50 км 10/6 600 м
[Cb cap As op]
+16.0 +11.0 72 +17 +17 1004.3 983.3
03 24.08 ЮЗ 2 50 км 8/3 600 м
[Cb cap Ac trans]
+19.0 +11.1 60 +20 +24 1003.0 982.4

 

Местоположение метеостанции Усть-Миль (Якутия, Россия): широта 59.63 долгота 133.00 высота над уровнем моря 179 м.

В архиве по умолчанию представлена погода в Усть-Миле за последнюю неделю. Архивные данные за месяц целиком и за предыдущие месяцы, начиная с января 2011 года, Вы можете получить, выбрав интересующий диапазон дат из раскрывающегося списка и нажав кнопку "Ввод!".

Внимание! Время в таблицах - всемирное. Для получения местного времени необходимо прибавить поправку, которая в Усть-Миле равна 9 ч.

Смотрите также архив погоды в соседних городах и на ближайших метеорологических станциях:

Погода в Усть-Мае (Якутия, Россия) (112 км)
Погода в Усть-Юдоме (Якутия, Россия) (129 км)
Погода в Амге (Якутия, Россия) (154 км)
Погода в Учуре (Якутия, Россия) (169 км)
Погода в Тегюльте (Якутия, Россия) (191 км)
Погода в Чюльбю (Якутия, Россия) (240 км)
Погода в Югоренке (Якутия, Россия) (259 км)
Погода в Чурапче (Якутия, Россия) (268 км)
Погода в Угино (Якутия, Россия) (280 км)
Погода в Охотском Перевозе (Якутия, Россия) (284 км)

Пояснения к столбцам:

Ветер - указаны скорость ветра в м/с - средняя за 10 мин, порывы в срок и между сроками (в фигурных скобках) и направление, откуда дует ветер: С - северный, СВ - северо-восточный, В - восточный, ЮВ - юго-восточный, Ю - южный, ЮЗ - юго-западный, З - западный, СЗ - северо-западный.
Видимость - горизонтальная дальность видимости в метрах или километрах. При видимости от 1 до 10 км при отсутствии осадков обычно наблюдается дымка, при ухудшении видимости до 1 км и менее - туман. В сухую погоду видимость может ухудшаться дымом, пылью или мглою.
Явления - указаны атмосферные явления, наблюдавшиеся в срок или в последний час перед сроком; фигурными скобками обозначены явления, наблюдавшиеся между сроками (за 1-3 часа до срока); квадратными скобками обозначены град или гололедные отложения с указанием их диаметра в мм.
Облачность - указаны через наклонную черту общая и нижняя облачность в баллах и высота нижней границы облаков в метрах; квадратными скобками обозначены формы облаков: Ci - перистые, Cs - перисто-слоистые, Cc - перисто-кучевые, Ac - высококучевые, As - высокослоистые, Sc - слоисто-кучевые, Ns - слоисто-дождевые, Cu - кучевые, Cb - кучево-дождевые. Подробнее классификацию облаков см. в Атласе облаков (PDF).
T - Температура воздуха - температура, измеренная на высоте 2 м над землей.
Td - Температура точки росы - температура, при понижении до которой содержащийся в воздухе водяной пар достигнет насыщения.
f - Относительная влажность воздуха - влажноcть воздуха, измеренная на высоте 2 м над землей.
Te - Эффективная температура - температура, которую ощущает одетый по сезону человек в тени. Характеристика душности погоды. При расчете учитывается влияние влажности воздуха и скорости ветра на теплоощущения человека.
Tes - Эффективная температура на солнце - температура, которую ощущает человек, с поправкой на солнечный нагрев. Характеристика знойности погоды. Зависит от высоты солнца над горизонтом, облачности и скорости ветра. Ночью, в пасмурную погоду, а также при ветре 12 м/с и более поправка равна нулю.
P - Атмосферное давление - приведенное к уровню моря атмосферное давление.
Po - Атмосферное давление - измеренное на уровне метеостанции атмосферное давление.
Tmin - Минимальная температура - минимум температуры воздуха на высоте 2 м над землей.
Tmax - Максимальная температура - максимум температуры воздуха на высоте 2 м над землей.
R - Количество осадков - Количество выпавших осадков за период времени, мм. При наведении курсора мыши на число - период времени, за который выпало указанное количество осадков.
R24 - Количество осадков - Количество выпавших осадков за 24 часа, мм.
S - Снежный покров - Высота снежного покрова, см. При наведении курсора мыши на число - состояние снежного покрова и степень покрытия местности в баллах.